Time,TemperatureF,DewpointF,PressureIn,WindDirection,WindDirectionDegrees,WindSpeedMPH,WindSpeedGustMPH,Humidity,HourlyPrecipIn,Conditions,Clouds,dailyrainin,SoftwareType,DateUTC
2013-06-17 00:12:00,72.8,27.0,29.88,South,182,0.0,-999.0,18,-99.99,,,0.00,weatherlink.com 1.10,2013-06-17 07:12:00,
2013-06-17 00:27:00,72.5,25.0,29.88,WSW,256,0.0,-999.0,17,-99.99,,,0.00,weatherlink.com 1.10,2013-06-17 07:27:00,
2013-06-17 00:42:00,73.7,28.0,29.87,SSE,165,3.0,-999.0,18,-99.99,,,0.00,weatherlink.com 1.10,2013-06-17 07:42:00,
2013-06-17 00:57:00,74.4,25.0,29.86,SSE,159,0.0,-999.0,16,-99.99,,,0.00,weatherlink.com 1.10,2013-06-17 07:57:00,
2013-06-17 01:12:00,71.5,29.0,29.87,South,179,14.0,-999.0,21,-99.99,,,0.00,weatherlink.com 1.10,2013-06-17 08:12:00,
2013-06-17 01:27:00,69.6,29.0,29.88,South,170,0.0,-999.0,22,-99.99,,,0.00,weatherlink.com 1.10,2013-06-17 08:27:00,
2013-06-17 01:43:00,70.3,28.0,29.87,SE,135,1.0,-999.0,21,-99.99,,,0.00,weatherlink.com 1.10,2013-06-17 08:43:00,
2013-06-17 01:58:00,70.6,30.0,29.87,East,100,3.0,-999.0,22,-99.99,,,0.00,weatherlink.com 1.10,2013-06-17 08:58:00,
2013-06-17 02:13:00,70.9,30.0,29.86,East,98,3.0,-999.0,22,-99.99,,,0.00,weatherlink.com 1.10,2013-06-17 09:13:00,
2013-06-17 02:28:00,69.8,32.0,29.86,East,101,6.0,-999.0,25,-99.99,,,0.00,weatherlink.com 1.10,2013-06-17 09:28:00,
2013-06-17 02:43:00,69.4,31.0,29.85,ESE,113,4.0,-999.0,24,-99.99,,,0.00,weatherlink.com 1.10,2013-06-17 09:43:00,
2013-06-17 02:58:00,66.3,30.0,29.85,SSW,193,4.0,-999.0,26,-99.99,,,0.00,weatherlink.com 1.10,2013-06-17 09:58:00,
2013-06-17 03:13:00,64.3,29.0,29.87,SSE,155,0.0,-999.0,27,-99.99,,,0.00,weatherlink.com 1.10,2013-06-17 10:13:00,
2013-06-17 03:28:00,64.0,29.0,29.87,NNE,13,3.0,-999.0,27,-99.99,,,0.00,weatherlink.com 1.10,2013-06-17 10:28:00,
2013-06-17 03:43:00,65.8,32.0,29.86,SSE,153,10.0,-999.0,28,-99.99,,,0.00,weatherlink.com 1.10,2013-06-17 10:43:00,
2013-06-17 03:58:00,66.4,32.0,29.85,SW,217,6.0,-999.0,28,-99.99,,,0.00,weatherlink.com 1.10,2013-06-17 10:58:00,
2013-06-17 04:13:00,66.6,32.0,29.86,WSW,253,3.0,-999.0,28,-99.99,,,0.00,weatherlink.com 1.10,2013-06-17 11:13:00,
2013-06-17 04:28:00,65.3,31.0,29.86,WSW,241,2.0,-999.0,28,-99.99,,,0.00,weatherlink.com 1.10,2013-06-17 11:28:00,
2013-06-17 04:44:00,64.8,33.0,29.86,SW,226,7.0,-999.0,31,-99.99,,,0.00,weatherlink.com 1.10,2013-06-17 11:44:00,
2013-06-17 04:59:00,65.0,34.0,29.86,SSW,211,12.0,-999.0,31,-99.99,,,0.00,weatherlink.com 1.10,2013-06-17 11:59:00,
2013-06-17 05:14:00,64.7,31.0,29.87,SSW,211,3.0,-999.0,28,-99.99,,,0.00,weatherlink.com 1.10,2013-06-17 12:14:00,
2013-06-17 05:29:00,64.3,33.0,29.88,SSW,211,4.0,-999.0,31,-99.99,,,0.00,weatherlink.com 1.10,2013-06-17 12:29:00,
2013-06-17 05:44:00,64.5,32.0,29.89,SSW,197,10.0,-999.0,30,-99.99,,,0.00,weatherlink.com 1.10,2013-06-17 12:44:00,
2013-06-17 05:59:00,63.7,32.0,29.89,SSW,209,4.0,-999.0,30,-99.99,,,0.00,weatherlink.com 1.10,2013-06-17 12:59:00,
2013-06-17 06:14:00,64.0,32.0,29.89,SSW,203,5.0,-999.0,30,-99.99,,,0.00,weatherlink.com 1.10,2013-06-17 13:14:00,
2013-06-17 06:29:00,65.3,32.0,29.91,SW,236,2.0,-999.0,29,-99.99,,,0.00,weatherlink.com 1.10,2013-06-17 13:29:00,
2013-06-17 06:44:00,66.1,33.0,29.91,South,177,2.0,-999.0,29,-99.99,,,0.00,weatherlink.com 1.10,2013-06-17 13:44:00,
2013-06-17 06:59:00,67.8,32.0,29.89,SSW,208,4.0,-999.0,27,-99.99,,,0.00,weatherlink.com 1.10,2013-06-17 13:59:00,
2013-06-17 07:14:00,69.1,34.0,29.90,South,179,2.0,-999.0,27,-99.99,,,0.00,weatherlink.com 1.10,2013-06-17 14:14:00,
2013-06-17 07:29:00,70.8,34.0,29.91,SSW,196,6.0,-999.0,26,-99.99,,,0.00,weatherlink.com 1.10,2013-06-17 14:29:00,
2013-06-17 07:45:00,72.5,35.0,29.91,SSW,207,3.0,-999.0,25,-99.99,,,0.00,weatherlink.com 1.10,2013-06-17 14:45:00,
2013-06-17 08:00:00,74.7,34.0,29.90,SW,218,2.0,-999.0,23,-99.99,,,0.00,weatherlink.com 1.10,2013-06-17 15:00:00,
2013-06-17 08:15:00,76.8,34.0,29.90,SSW,212,11.0,-999.0,21,-99.99,,,0.00,weatherlink.com 1.10,2013-06-17 15:15:00,
2013-06-17 08:30:00,78.3,33.0,29.91,SW,215,6.0,-999.0,19,-99.99,,,0.00,weatherlink.com 1.10,2013-06-17 15:30:00,
2013-06-17 08:45:00,79.6,32.0,29.90,SW,216,1.0,-999.0,18,-99.99,,,0.00,weatherlink.com 1.10,2013-06-17 15:45:00,
2013-06-17 09:00:00,81.4,33.0,29.90,West,270,12.0,-999.0,17,-99.99,,,0.00,weatherlink.com 1.10,2013-06-17 16:00:00,
2013-06-17 09:15:00,82.4,32.0,29.89,NW,305,22.0,-999.0,16,-99.99,,,0.00,weatherlink.com 1.10,2013-06-17 16:15:00,
2013-06-17 09:30:00,83.2,31.0,29.89,NW,315,19.0,-999.0,15,-99.99,,,0.00,weatherlink.com 1.10,2013-06-17 16:30:00,
2013-06-17 09:45:00,84.3,32.0,29.88,NNW,331,18.0,-999.0,15,-99.99,,,0.00,weatherlink.com 1.10,2013-06-17 16:45:00,
2013-06-17 10:00:00,85.1,32.0,29.88,NNW,329,25.0,-999.0,15,-99.99,,,0.00,weatherlink.com 1.10,2013-06-17 17:00:00,
2013-06-17 10:16:00,86.1,33.0,29.88,NNW,329,22.0,-999.0,15,-99.99,,,0.00,weatherlink.com 1.10,2013-06-17 17:16:00,
2013-06-17 10:31:00,86.1,32.0,29.88,NW,325,15.0,-999.0,14,-99.99,,,0.00,weatherlink.com 1.10,2013-06-17 17:31:00,
2013-06-17 10:46:00,86.3,32.0,29.87,NW,310,19.0,-999.0,14,-99.99,,,0.00,weatherlink.com 1.10,2013-06-17 17:46:00,
2013-06-17 11:01:00,87.0,32.0,29.87,NW,321,11.0,-999.0,14,-99.99,,,0.00,weatherlink.com 1.10,2013-06-17 18:01:00,
2013-06-17 11:16:00,87.8,31.0,29.87,NW,325,15.0,-999.0,13,-99.99,,,0.00,weatherlink.com 1.10,2013-06-17 18:16:00,
2013-06-17 11:31:00,88.6,32.0,29.87,NNW,334,16.0,-999.0,13,-99.99,,,0.00,weatherlink.com 1.10,2013-06-17 18:31:00,
2013-06-17 11:46:00,89.7,31.0,29.86,NNW,338,20.0,-999.0,12,-99.99,,,0.00,weatherlink.com 1.10,2013-06-17 18:46:00,
2013-06-17 12:01:00,90.3,29.0,29.86,NW,323,16.0,-999.0,11,-99.99,,,0.00,weatherlink.com 1.10,2013-06-17 19:01:00,
2013-06-17 12:16:00,91.6,30.0,29.86,WNW,302,11.0,-999.0,11,-99.99,,,0.00,weatherlink.com 1.10,2013-06-17 19:16:00,
2013-06-17 12:31:00,92.3,31.0,29.85,NW,313,14.0,-999.0,11,-99.99,,,0.00,weatherlink.com 1.10,2013-06-17 19:31:00,
2013-06-17 12:46:00,92.7,29.0,29.84,NNW,340,13.0,-999.0,10,-99.99,,,0.00,weatherlink.com 1.10,2013-06-17 19:46:00,
2013-06-17 13:02:00,93.8,29.0,29.84,North,355,14.0,-999.0,10,-99.99,,,0.00,weatherlink.com 1.10,2013-06-17 20:02:00,
2013-06-17 13:17:00,93.4,29.0,29.84,NNW,338,16.0,-999.0,10,-99.99,,,0.00,weatherlink.com 1.10,2013-06-17 20:17:00,
2013-06-17 13:32:00,93.6,29.0,29.83,North,351,14.0,-999.0,10,-99.99,,,0.00,weatherlink.com 1.10,2013-06-17 20:32:00,
2013-06-17 13:47:00,93.6,29.0,29.83,NW,309,13.0,-999.0,10,-99.99,,,0.00,weatherlink.com 1.10,2013-06-17 20:47:00,
2013-06-17 14:02:00,94.0,27.0,29.83,WSW,258,16.0,-999.0,9,-99.99,,,0.00,weatherlink.com 1.10,2013-06-17 21:02:00,
2013-06-17 14:17:00,93.8,27.0,29.84,SW,233,12.0,-999.0,9,-99.99,,,0.00,weatherlink.com 1.10,2013-06-17 21:17:00,
2013-06-17 14:32:00,94.5,27.0,29.84,West,274,14.0,-999.0,9,-99.99,,,0.00,weatherlink.com 1.10,2013-06-17 21:32:00,
2013-06-17 14:47:00,93.6,27.0,29.84,WSW,242,15.0,-999.0,9,-99.99,,,0.00,weatherlink.com 1.10,2013-06-17 21:47:00,
2013-06-17 15:02:00,93.2,26.0,29.83,SW,227,10.0,-999.0,9,-99.99,,,0.00,weatherlink.com 1.10,2013-06-17 22:02:00,
2013-06-17 15:17:00,92.5,23.0,29.83,WSW,255,15.0,-999.0,8,-99.99,,,0.00,weatherlink.com 1.10,2013-06-17 22:17:00,
2013-06-17 15:32:00,92.7,23.0,29.83,WSW,244,10.0,-999.0,8,-99.99,,,0.00,weatherlink.com 1.10,2013-06-17 22:32:00,
2013-06-17 15:47:00,93.6,21.0,29.82,SW,229,13.0,-999.0,7,-99.99,,,0.00,weatherlink.com 1.10,2013-06-17 22:47:00,
2013-06-17 16:02:00,93.2,20.0,29.82,SW,235,17.0,-999.0,7,-99.99,,,0.00,weatherlink.com 1.10,2013-06-17 23:02:00,
2013-06-17 16:18:00,92.7,20.0,29.82,West,259,17.0,-999.0,7,-99.99,,,0.00,weatherlink.com 1.10,2013-06-17 23:18:00,
2013-06-17 16:33:00,91.8,19.0,29.82,West,281,11.0,-999.0,7,-99.99,,,0.00,weatherlink.com 1.10,2013-06-17 23:33:00,
2013-06-17 16:48:00,92.3,20.0,29.82,West,264,12.0,-999.0,7,-99.99,,,0.00,weatherlink.com 1.10,2013-06-17 23:48:00,
2013-06-17 17:03:00,91.2,27.0,29.82,NW,317,16.0,-999.0,10,-99.99,,,0.00,weatherlink.com 1.10,2013-06-18 00:03:00,
2013-06-17 17:18:00,90.3,29.0,29.82,NW,313,13.0,-999.0,11,-99.99,,,0.00,weatherlink.com 1.10,2013-06-18 00:18:00,
2013-06-17 17:33:00,89.9,18.0,29.82,West,263,6.0,-999.0,7,-99.99,,,0.00,weatherlink.com 1.10,2013-06-18 00:33:00,
2013-06-17 17:48:00,89.7,29.0,29.82,NW,315,6.0,-999.0,11,-99.99,,,0.00,weatherlink.com 1.10,2013-06-18 00:48:00,
2013-06-17 18:03:00,88.8,28.0,29.82,NW,310,16.0,-999.0,11,-99.99,,,0.00,weatherlink.com 1.10,2013-06-18 01:03:00,
2013-06-17 18:18:00,87.6,29.0,29.81,WNW,300,12.0,-999.0,12,-99.99,,,0.00,weatherlink.com 1.10,2013-06-18 01:18:00,
2013-06-17 18:33:00,86.5,30.0,29.82,WNW,294,18.0,-999.0,13,-99.99,,,0.00,weatherlink.com 1.10,2013-06-18 01:33:00,
2013-06-17 18:48:00,85.3,29.0,29.82,NW,311,17.0,-999.0,13,-99.99,,,0.00,weatherlink.com 1.10,2013-06-18 01:48:00,
2013-06-17 19:03:00,84.3,30.0,29.82,NW,309,16.0,-999.0,14,-99.99,,,0.00,weatherlink.com 1.10,2013-06-18 02:03:00,
2013-06-17 19:18:00,83.2,29.0,29.81,NW,304,13.0,-999.0,14,-99.99,,,0.00,weatherlink.com 1.10,2013-06-18 02:18:00,
2013-06-17 19:33:00,82.0,28.0,29.81,NW,317,19.0,-999.0,14,-99.99,,,0.00,weatherlink.com 1.10,2013-06-18 02:33:00,
2013-06-17 19:49:00,81.1,28.0,29.82,NW,317,10.0,-999.0,14,-99.99,,,0.00,weatherlink.com 1.10,2013-06-18 02:49:00,
2013-06-17 20:04:00,80.1,27.0,29.82,WNW,288,12.0,-999.0,14,-99.99,,,0.00,weatherlink.com 1.10,2013-06-18 03:04:00,
2013-06-17 20:19:00,79.4,28.0,29.81,WNW,284,11.0,-999.0,15,-99.99,,,0.00,weatherlink.com 1.10,2013-06-18 03:19:00,
2013-06-17 20:34:00,78.5,25.0,29.81,West,262,12.0,-999.0,14,-99.99,,,0.00,weatherlink.com 1.10,2013-06-18 03:34:00,
2013-06-17 20:49:00,78.1,25.0,29.82,West,277,10.0,-999.0,14,-99.99,,,0.00,weatherlink.com 1.10,2013-06-18 03:49:00,
2013-06-17 21:04:00,77.9,25.0,29.82,West,259,7.0,-999.0,14,-99.99,,,0.00,weatherlink.com 1.10,2013-06-18 04:04:00,
2013-06-17 21:19:00,77.0,26.0,29.82,South,184,5.0,-999.0,15,-99.99,,,0.00,weatherlink.com 1.10,2013-06-18 04:19:00,
2013-06-17 21:34:00,76.5,27.0,29.82,SSW,198,5.0,-999.0,16,-99.99,,,0.00,weatherlink.com 1.10,2013-06-18 04:34:00,
2013-06-17 21:49:00,76.7,22.0,29.83,WSW,237,18.0,-999.0,13,-99.99,,,0.00,weatherlink.com 1.10,2013-06-18 04:49:00,
2013-06-17 22:04:00,75.8,29.0,29.83,WSW,256,2.0,-999.0,18,-99.99,,,0.00,weatherlink.com 1.10,2013-06-18 05:04:00,
2013-06-17 22:19:00,74.6,30.0,29.83,SSW,192,0.0,-999.0,19,-99.99,,,0.00,weatherlink.com 1.10,2013-06-18 05:19:00,
2013-06-17 22:34:00,75.3,26.0,29.82,WNW,288,12.0,-999.0,16,-99.99,,,0.00,weatherlink.com 1.10,2013-06-18 05:34:00,
2013-06-17 22:49:00,74.6,31.0,29.83,SW,228,6.0,-999.0,20,-99.99,,,0.00,weatherlink.com 1.10,2013-06-18 05:49:00,
2013-06-17 23:05:00,73.7,31.0,29.84,SW,227,0.0,-999.0,21,-99.99,,,0.00,weatherlink.com 1.10,2013-06-18 06:05:00,
2013-06-17 23:20:00,73.2,30.0,29.82,WNW,287,13.0,-999.0,20,-99.99,,,0.00,weatherlink.com 1.10,2013-06-18 06:20:00,
2013-06-17 23:35:00,72.8,33.0,29.82,WSW,250,7.0,-999.0,23,-99.99,,,0.00,weatherlink.com 1.10,2013-06-18 06:35:00,
2013-06-17 23:50:00,72.8,34.0,29.82,SW,217,0.0,-999.0,24,-99.99,,,0.00,weatherlink.com 1.10,2013-06-18 06:50:00,